Location: ?????
(38.4420°N, 23.6814°E)
Time: 11:31:38
(UTC+00:00)

Daily predictions for brighter satellites

Satellite Brightness Start Highest point End
(mag) Time Altitude Azimuth Time Altitude Azimuth Time Altitude Azimuth
NOAA 12 4.1 15:23:18 10° SSE 15:28:36 72° ENE 15:33:55 10° N
Meteor PRIRODA 3.6 15:25:53 10° SSE 15:29:31 82° ENE 15:33:09 10° N
Cosmos 44 3.6 15:30:03 10° NW 15:34:41 67° WSW 15:39:04 10° SSE
Cosmos 2034 Rocket 4.2 15:28:41 10° S 15:34:50 80° W 15:41:02 10° N
Cosmos 540 Rocket 3.5 15:33:29 10° S 15:38:32 69° ESE 15:43:36 10° NNE
AQUARIUS 4.4 15:35:18 10° SE 15:39:35 47° ENE 15:43:54 10° N
ARGOS 4.3 15:37:57 10° ESE 15:41:47 20° ENE 15:45:36 10° NNE
COSMOS 2406 3.3 15:36:04 10° SSW 15:41:49 85° ESE 15:47:35 10° NNE
Cosmos 1833 Rocket 3.0 15:37:56 10° SSW 15:43:32 71° WNW 15:49:10 10° NNE
Cosmos 1602 4.0 15:40:21 10° N 15:44:05 46° E 15:47:48 10° SSE
ATLAS CENTAUR R/B 3.9 15:37:48 10° SW 15:49:47 57° NW 15:54:34 10° NNE
Cosmos 1782 2.8 15:47:29 10° S 15:51:25 59° E 15:55:21 10° NNE
COSMO-SKYMED 1 3.5 15:47:42 10° NE 15:51:25 27° E 15:55:06 10° SSE
Cosmos 1634 Rocket 4.0 15:49:18 10° S 15:55:34 69° E 16:01:52 10° NNE
COSMOS 2455 2.9 15:51:56 10° SSW 15:57:57 86° ESE 16:04:01 10° NNE
CZ-2C R/B 3.3 15:55:12 10° SSW 15:58:10 19° SSE 16:01:04 10° ESE
Cosmos 1633 Rocket 4.1 15:56:27 10° NNE 16:00:03 24° ENE 16:03:38 10° SE
PAYLOAD B 4.4 15:55:01 10° SSE 16:00:27 53° ENE 16:05:54 10° N
Cosmos 1898 Rocket 3.5 15:55:40 10° NNW 16:00:56 90° W 16:06:07 10° SSE
CZ-2D R/B 3.4 15:59:12 10° SSE 16:02:55 50° ENE 16:06:38 10° N
CZ-2C R/B 4.2 15:58:17 10° S 16:03:01 44° W 16:07:36 10° NNW
CZ-4B R/B 3.6 15:58:25 10° SE 16:03:23 38° ENE 16:08:17 10° N
Cosmos 2026 Rocket 3.9 15:59:47 10° N 16:05:54 74° E 16:11:57 10° SSE
Cosmos 1340 Rocket 4.5 16:02:40 10° NNW 16:06:28 38° W 16:10:14 10° SSW
CZ-2C R/B 2.9 16:01:46 10° NNE 16:06:43 44° E 16:11:37 10° S
Cosmos 1151 Rocket 3.2 16:05:01 10° SSE 16:09:09 48° E 16:13:20 10° NNE
Meteor 2-14 Rocket 4.4 16:05:35 10° N 16:11:41 76° E 16:17:45 10° SSE
Okean O Rocket 2.3 16:07:58 10° SE 16:11:52 31° ENE 16:15:49 10° N
Cosmos 2360 4.2 16:06:17 10° NNW 16:12:03 88° ENE 16:17:46 10° SSE
Cosmos 1500 3.0 16:10:12 10° N 16:13:55 70° E 16:17:37 10° SSE
Lacrosse 5 rocket 3.4 16:13:54 10° N 16:15:00 11° NNE 16:15:00 11° NNE
Cosmos 2208 Rocket 4.3 16:11:25 10° S 16:16:32 47° ESE 16:21:06 13° NNE
DEBRIS 3.8 16:14:48 10° S 16:16:40 21° ESE 16:17:08 20° ESE
X-37B 2.5 16:17:11 10° S 16:18:47 14° SE 16:18:58 14° SE
USA 267 4.4 16:14:02 10° NNE 16:19:45 34° NNW 16:25:28 10° W
H-2A R/B 1.9 16:15:30 10° SSE 16:20:41 74° ENE 16:25:46 10° N
GPS 2-04 Rocket1 3.3 16:20:55 10° W 16:24:56 53° S 16:27:26 21° ESE
Cosmos 1666 Rocket 3.5 16:21:33 10° N 16:25:56 59° E 16:30:15 10° SSE
Cosmos 1328 Rocket 3.6 16:22:07 10° S 16:26:26 54° E 16:30:23 12° NNE
CZ-4C R/B 3.9 16:26:52 28° ESE 16:26:52 28° ESE 16:29:24 10° SSE
Cosmos 1470 Rocket 4.3 16:25:11 10° NNE 16:29:06 29° ENE 16:33:01 10° SE
PSLV R/B 4.3 16:27:53 10° S 16:31:29 56° W 16:35:09 10° NNW
Meteor 2-8 Rocket 4.4 16:25:34 10° S 16:31:35 61° E 16:37:39 10° NNE
Cosmos 841 Rocket 4.4 16:27:27 10° SW 16:32:26 49° WNW 16:37:26 10° N
USA 276 3.4 16:30:01 10° WNW 16:32:57 39° SW 16:35:35 12° SSE
MOS 1-B 4.4 16:28:00 10° SSE 16:33:47 86° WSW 16:39:35 10° NNW
Landsat 5 3.4 16:32:09 22° NNE 16:34:38 58° E 16:38:31 10° S
Meteor 2-21 Rocket 4.3 16:28:38 10° N 16:34:45 85° E 16:40:48 10° S
SKYMED 2 3.6 16:35:14 10° N 16:39:35 83° WNW 16:43:55 10° SSW
Cosmos 1937 Rocket 4.3 16:35:41 10° NNW 16:40:52 54° WSW 16:46:00 10° S
Cosmos 1666 2.5 16:39:40 10° N 16:43:24 87° E 16:47:06 10° S
SL-24 R/B - RUBIN 2 3.3 16:42:19 10° NNW 16:46:46 83° ENE 16:49:59 17° SSE
Cosmos 2322 Rocket 3.9 16:44:17 10° N 16:45:58 16° NNE 16:45:58 16° NNE
Cosmos 1697 Rocket 4.1 16:45:06 10° NW 16:50:16 39° WSW 16:55:26 10° S
USA 234 3.3 16:44:26 10° SE 16:50:59 80° SW 16:57:33 10° NW
Cosmos 372 Rocket 4.3 16:46:55 10° NNW 16:52:08 68° WSW 16:57:19 10° S
SL-08 RB Rocket 3.6 16:49:47 10° SSE 16:54:22 63° ENE 16:58:56 10° N
Cosmos 1980 Rocket 2.3 16:49:10 10° NNW 16:54:49 75° WSW 17:00:24 10° SSE
Cosmos 2369 4.4 16:51:05 10° NNW 16:56:40 56° WSW 17:02:13 10° S
H-2A R/B 4.4 17:00:19 12° SSE 17:00:19 12° SSE 17:00:40 10° SSE
Cosmos 1812 4.4 16:55:01 10° SW 16:58:30 32° WNW 17:02:00 10° NNW
Meteor 1-5 Rocket 4.5 16:54:41 10° NNW 17:00:39 75° W 17:06:29 10° S
deb Chang Zheng 4 4.1 16:57:25 10° S 17:01:39 60° WSW 17:05:56 10° NNW
CZ-4C R/B 3.0 16:54:34 10° NNW 17:02:05 72° NE 17:10:40 10° SE
Cosmos 2082 Rocket 3.7 17:00:21 10° WSW 17:05:27 33° WNW 17:10:34 10° N
SL-16 R/B 3.3 17:01:12 10° N 17:04:15 27° NNE 17:04:15 27° NNE
ISS -1.8 17:03:32 10° NW 17:04:58 22° NNW 17:04:58 22° NNW
Cosmos 1515 Rocket 3.4 17:04:07 10° S 17:08:34 86° E 17:08:52 78° NNE
Cosmos 44 Rocket 4.4 17:11:39 10° NNW 17:14:23 31° N 17:14:23 31° N
Cosmos 2278 4.1 17:15:09 10° NNW 17:20:47 64° WSW 17:26:22 10° S
ARGOS 3.9 17:16:21 10° S 17:21:36 51° W 17:26:53 10° NNW
Meteor 1-27 Rocket 3.5 17:18:54 10° S 17:24:11 77° SE 17:24:11 77° SE
DMSP B5D2-2 4.1 17:29:23 65° NNW 17:30:03 76° WNW 17:35:16 10° SSW
IRAS Rocket 4.1 17:31:07 86° SSE 17:31:07 86° SSE 17:36:32 10° SSW
Cosmos 921 Rocket 4.2 17:28:40 10° SW 17:32:34 38° WNW 17:32:43 38° WNW
Cosmos 2266 Rocket 4.1 17:26:39 10° N 17:33:02 76° W 17:39:25 10° S
ATLAS 5 CENTAUR R/B 4.5 17:32:21 10° NNW 17:33:09 13° NNW 17:33:09 13° NNW
CZ-2C R/B 3.2 17:33:19 10° WSW 17:35:26 26° SW 17:35:26 26° SW
Cosmos 1818 4.3 17:35:03 10° NNW 17:38:50 46° NNW 17:38:50 46° NNW
Okean O Rocket 4.0 17:44:46 10° SSW 17:48:13 22° W 17:51:42 10° NW
